STARLINK-4619 (54191 NORAD) Tracking and Keplerian Element Data

This shows tracking and keplerian element data for the satellite.

Feedback or suggestion? Click here.




ElementValue
Catalog54191
NameSTARLINK-4619
Epoch Orbit407
Epoch Day325.25001157
Epoch Year2022
RAAN24.0945
Inclination53.218
Eccentricity0.0003238
Argument of Perigee7.6692
Mean Anonmoly20.9544
Mean Motion15.73174891
Decay Rate0.00030068
L11 54191U 22141AL 22325.25001157 .00030068 00000+0 21809-3 0 9994
L22 54191 53.2180 24.0945 0003238 7.6692 20.9544 15.73174891 4072



Live tracking and technical data element details for STARLINK-4619 (NORAD 54191). STARLINK-4619 can be tracked NOW for your location showing map with azimuth and elevation plus other details from your city location.







IsCatalogInMostPopularTable: catalog: 54191, numindb: 4
Update: records affected: 1



GetName: 54191 STARLINK-4619

Hit Count: updated at: Mon, 28 Nov 2022 22:26:12 GMT